Location: Waco, TX
(31.5480°N, 97.1670°W)
Time: 01:32:52
(UTC-06:00)

ISS - Pass Details

Date: 30 January 2021
Orbit: 417 x 422 km, 51.6° (Epoch: 09 March)

Event Time Altitude Azimuth Distance (km) Brightness Sun altitude
Rises 13:07:20 0° 202° (SSW) 2,344 0.9 40.6°
Reaches altitude 10° 13:09:36 10° 190° (S) 1,486 0.2 40.6°
Maximum altitude 13:12:30 28° 129° (SE) 821 -1.6 40.5°
Drops below altitude 10° 13:15:25 10° 69° (ENE) 1,497 -1.1 40.4°
Sets 13:17:42 0° 57° (ENE) 2,364 -0.3 40.3°
